ROMMA est une association bénévole à but non lucratif. Votre soutien est indispensable : ADHERER à ROMMA ou FAIRE un DON

Val-d'Isère - (73, Savoie)

Haute-Maurienne (1850 m)   Longitude: 6° 58' 52'' E   Latitude: 45° 26' 53'' N Station partenaire n°93
 

Détail journalier du     <<     >>

Température Precipitation Humidité Vent Dir Rafale Dir. rafale Ensol.
Heure (°C) (mm) (%) (km/h) (km/h) (min)
01:00 -0.70731E5ESE0
02:00 -1.30742E11E0
03:00 -2.00751ESE5E0
04:00 -2.40742ESE5ESE0
05:00 -2.80751E6E0
06:00 -3.60761E5SE0
07:00 -3.70761ESE5ESE0
08:00 -3.30762E6ESE0
09:00 -1.50682E11E60
10:00 0.90622E8SSE60
11:00 2.60587ESE15ESE60
12:00 3.30578ESE15ESE60
13:00 4.305411ESE18E60
14:00 4.605411E23ESE60
15:00 4.705710E26S0
16:00 3.20726E18SSE0
17:00 3.10754E11E0
18:00 2.10.4864NE15E0
19:00 3.00822NNE6N30
20:00 2.70.2756E26O0
21:00 2.50785E18OSO0
22:00 1.20893O15O0
23:00 0.80932NO6OSO0
minuit 0.709403E0

Graphique du 10-04-2019

 

Serveur OMMA